GW2085 Weather Reports


Display with metric or nautical units.
time (UTC)temp
F
wind
direction
speed
MPH
gust
MPH
rain 1hr
in
rain 24hr
in
rain mn
in
humidity
%
barometer
mb
20260503031553 60 0 0.0 2.0 0.00 0.00 0.00 80 1011.5
20260503030101 61 0 0.0 1.0 0.00 0.00 0.00 79 1011.5
20260503024551 62 264 1.0 3.0 0.00 0.00 0.00 78 1011.3
20260503023058 63 218 1.0 3.0 0.00 0.00 0.00 77 1011.2
20260503021558 64 266 0.0 3.0 0.00 0.00 0.00 75 1011.0
20260503020056 65 293 0.0 4.0 0.00 0.00 0.00 74 1011.0
20260503014549 66 226 2.0 5.0 0.00 0.00 0.00 73 1011.0
20260503013051 67 309 1.0 4.0 0.00 0.00 0.00 71 1010.9
20260503011557 68 260 1.0 4.0 0.00 0.00 0.00 69 1010.8
20260503010058 69 230 2.0 6.0 0.00 0.00 0.00 67 1010.8
20260503004614 71 51 1.0 5.0 0.00 0.00 0.00 65 1010.7
20260503003113 72 228 1.0 6.0 0.00 0.00 0.00 64 1010.9
20260503001626 72 290 2.0 4.0 0.00 0.00 0.00 63 1010.8
20260503000054 71 320 2.0 8.0 0.00 0.00 0.00 65 1010.7
20260502234610 72 233 2.0 8.0 0.00 0.00 0.00 64 1010.7
20260502233103 72 306 3.0 7.0 0.00 0.00 0.00 62 1010.8
20260502231603 73 34 2.0 6.0 0.00 0.00 0.00 63 1010.8
20260502230053 73 248 2.0 5.0 0.00 0.00 0.00 63 1011.0
20260502224603 73 304 3.0 8.0 0.00 0.00 0.00 62 1011.1
20260502223059 74 224 3.0 7.0 0.00 0.00 0.00 61 1011.4
20260502221554 75 319 4.0 7.0 0.00 0.00 0.00 60 1011.6
20260502220059 75 154 2.0 8.0 0.00 0.00 0.00 60 1011.7
20260502214551 75 233 2.0 10.0 0.00 0.00 0.00 60 1011.9
20260502213106 76 261 3.0 10.0 0.00 0.00 0.00 58 1011.9
20260502211551 78 203 3.0 7.0 0.00 0.00 0.00 56 1012.0
20260502210054 78 210 2.0 5.0 0.00 0.00 0.00 53 1011.8
20260502204552 77 221 2.0 6.0 0.00 0.00 0.00 53 1012.0
20260502203053 76 226 1.0 5.0 0.00 0.00 0.00 56 1012.0
20260502201552 76 264 1.0 8.0 0.00 0.00 0.00 56 1012.4
20260502200112 75 57 1.0 7.0 0.00 0.00 0.00 57 1012.5
20260502194607 74 360 1.0 5.0 0.00 0.00 0.00 61 1012.7
20260502193052 73 1 3.0 5.0 0.00 0.00 0.00 62 1012.8
20260502191559 72 260 2.0 7.0 0.00 0.00 0.00 64 1013.1
20260502190052 71 335 2.0 6.0 0.00 0.00 0.00 67 1013.3
20260502184553 71 323 2.0 5.0 0.00 0.00 0.00 67 1013.5
20260502183051 70 179 3.0 5.0 0.00 0.00 0.00 69 1013.7
20260502181552 67 301 2.0 5.0 0.00 0.00 0.00 72 1013.8
20260502163101 61 269 0.0 2.0 0.00 0.00 0.00 82 1014.7
20260502161554 61 261 0.0 1.0 0.00 0.00 0.00 84 1014.8
20260502160103 60 158 1.0 2.0 0.00 0.00 0.00 85 1014.8
20260502151836 59 55 0.0 2.0 0.00 0.00 0.00 87 1014.6
20260502150130 58 0 0.0 1.0 0.00 0.00 0.00 88 1014.6
20260502130107 58 0 0.0 1.0 0.00 0.00 0.00 87 1014.1
20260502123054 58 0 0.0 1.0 0.00 0.00 0.00 86 1013.8
20260502121605 58 0 0.0 1.0 0.00 0.00 0.00 86 1013.7
20260502120112 58 0 0.0 4.0 0.00 0.00 0.00 86 1013.6
20260502114556 58 46 0.0 1.0 0.00 0.00 0.00 85 1013.6
20260502113112 58 47 0.0 1.0 0.00 0.00 0.00 85 1013.6
20260502111604 58 0 0.0 1.0 0.00 0.00 0.00 85 1013.6
20260502110053 58 35 1.0 2.0 0.00 0.00 0.00 84 1013.4
20260502104549 59 0 0.0 1.0 0.00 0.00 0.00 84 1013.3
20260502103112 59 214 0.0 1.0 0.00 0.00 0.00 85 1013.2
20260502101605 59 0 0.0 2.0 0.00 0.00 0.00 85 1013.2
20260502090108 59 0 0.0 0.0 0.00 0.00 0.00 84 1013.2
20260502070059 59 0 0.0 0.0 0.00 0.00 0.00 86 1014.1
20260502064555 59 0 0.0 0.0 0.00 0.00 0.00 86 1014.1
20260502063124 58 0 0.0 0.0 0.00 0.00 0.00 87 1014.0
20260502061554 58 0 0.0 0.0 0.00 0.00 0.00 87 1014.0
20260502060055 57 0 0.0 0.0 0.00 0.00 0.00 87 1014.1
20260502054617 57 0 0.0 0.0 0.00 0.00 0.00 86 1014.1
20260502053108 57 0 0.0 0.0 0.00 0.00 0.00 86 1014.2
20260502051558 57 0 0.0 0.0 0.00 0.00 0.00 85 1014.1
20260502050053 57 0 0.0 0.0 0.00 0.00 0.00 85 1014.1
20260502044557 58 0 0.0 0.0 0.00 0.00 0.00 84 1014.1
20260502043104 58 0 0.0 0.0 0.00 0.00 0.00 83 1013.9
20260502041553 58 0 0.0 0.0 0.00 0.00 0.00 83 1013.8
20260502040054 59 0 0.0 0.0 0.00 0.00 0.00 82 1013.7
20260502034557 59 0 0.0 1.0 0.00 0.00 0.00 82 1013.4
20260502033053 59 0 0.0 1.0 0.00 0.00 0.00 81 1013.3